Regional Weather Roundup
Issued by NWS

Home | Current Version | Previous Version | Text Only | Print | Product List | Glossary Off
Versions: 1 2 3 4 5 6 7 8 9 10 11 12 13 14 15 16 17 18 19 20 21 22 23 24 25 26 27 28 29 30 31 32 33 34 35 36 37 38 39 40 41 42 43 44 45 46 47 48 49 50

548
ASUS43 KMKX 180410
RWRWI

WISCONSIN REGIONAL WEATHER ROUNDUP
NATIONAL WEATHER SERVICE MILWAUKEE/SULLIVAN WI
1000 PM CST SAT FEB 17 2018

NOTE: "FAIR" INDICATES FEW OR NO CLOUDS BELOW 12,000 FEET WITH NO
SIGNIFICANT WEATHER AND/OR OBSTRUCTIONS TO VISIBILITY.

WIZ001-002-006>008-014>016-023>028-180500-
NORTHWEST WISCONSIN

CITY           SKY/WX    TMP DP  RH WIND       PRES   REMARKS
SUPERIOR ARPT  FAIR      19   5  54 NW12      30.01R WCI   7
ASHLAND        FAIR      22   6  50 W12       29.97R WCI  10
HAYWARD        FAIR      22   9  57 W3        29.97R
SIREN          FAIR      19   7  57 W6        30.03R WCI  11
CUMBERLAND     FAIR      18   5  57 W10       30.01R WCI   6
RICE LAKE      FAIR      20   7  58 W7        30.03R WCI  11
CHETEK         FAIR      22   9  56 W7        30.02R WCI  13
LADYSMITH      FAIR      22   9  58 W10       30.00R WCI  11
EAU CLAIRE     FAIR      23   9  55 W10       30.03R WCI  12
MENOMONIE      FAIR      24   9  52 W8        30.05R WCI  16
NEW RICHMOND   FAIR      19   6  55 W6        30.04S WCI  11
OSCEOLA        FAIR      21   8  58 W7        30.08R WCI  12
$$

WIZ003>005-009-010-017-018-180500-
NORTH CENTRAL WISCONSIN

CITY           SKY/WX    TMP DP  RH WIND       PRES   REMARKS
MANITOWISH WTR FAIR      18   8  66 W5        29.90R WCI  11
ARBOR VITAE    FAIR      23  11  61 NW5       29.90R WCI  17
WOODRUFF       FAIR      23  11  61 NW5       29.90R WCI  17
RHINELANDER    FAIR      21  18  88 SW8       29.90R WCI  11
EAGLE RIVER    FAIR      21   9  61 W5        29.88R WCI  14
LAND O LAKES   FAIR      22  10  60 W5        29.90R WCI  16
PHILLIPS       FAIR      23   9  56 W8        29.93R WCI  13
TOMAHAWK       FAIR      19  17  92 SW3       29.93R
MEDFORD        FAIR      19  16  87 W8        29.95R WCI   9
MERRILL        FAIR      19  18  95 W7        29.96R WCI  10
$$

WIZ029-030-035-036-043>047-180500-
CENTRAL WISCONSIN

CITY           SKY/WX    TMP DP  RH WIND       PRES   REMARKS
WAUSAU         FAIR      23  19  85 W13       29.96R WCI  11
MOSINEE        PTCLDY    19  19 100 SW9       29.99R WCI   9
MARSHFIELD     FAIR      21  19  92 W9        29.98R WCI  11
STEVENS POINT  FAIR      23  21  93 W10       30.00R WCI  12
WAUPACA        FAIR      24  19  82 SW6       30.01R WCI  17
WAUTOMA        FAIR      23  20  88 SW6       30.03R WCI  16
WISC RAPIDS    FAIR      22  17  81 W6        30.02R WCI  14
CAMP DOUGLAS   FAIR      24  20  86 SW8       30.04R WCI  15
$$

WIZ011>013-019>022-031-037>040-048>050-180500-
NORTHEAST WISCONSIN

CITY           SKY/WX    TMP DP  RH WIND       PRES   REMARKS
ANTIGO         MOCLDY    22  19  91 W14       29.93R WCI   9
SHAWANO        FAIR      26  21  81 SW6       29.98R WCI  19
OCONTO         MOCLDY    25  20  80 W8        29.99R WCI  17
STURGEON BAY   FAIR      25  20  81 W12       29.97R WCI  14
GREEN BAY      FAIR      24  18  77 SW6       30.00R WCI  17
MANITOWOC      FAIR      26  21  81 W9        30.01R WCI  17
APPLETON       CLEAR     25  18  74 SW8       29.99R WCI  16
CLINTONVILLE   FAIR      25  20  79 W8        29.99R WCI  17
OSHKOSH        FAIR      25  20  81 SW5       30.02R WCI  19
$$

WIZ032>034-041-042-053>061-180500-
SOUTHWEST WISCONSIN

CITY           SKY/WX    TMP DP  RH WIND       PRES   REMARKS
LA CROSSE      FAIR      26  20  77 SW9       30.08R WCI  17
SPARTA         FAIR      15  14  95 CALM      30.07R
VIROQUA        FAIR      22  22 100 SW12      30.05R WCI  10
BOSCOBEL       FAIR      25  21  85 SW6       30.11R WCI  18
PRAIRIE DU CHI FAIR      25  22  86 CALM      30.11R
PLATTEVILLE    FAIR      23  22  98 W8        30.10R WCI  13
$$

WIZ056-057-062-063-064-067-068-180500-
SOUTH CENTRAL WISCONSIN

CITY           SKY/WX    TMP DP  RH WIND       PRES   REMARKS
REEDSBURG      FAIR      25  22  87 W5        30.06R WCI  19
BARABOO/DELLS  FAIR      25  21  85 SW8       30.04S WCI  16
LONE ROCK      FAIR      21  20  96 CALM      30.09S
MINERAL POINT  FAIR      27  27 100 W5        30.08R WCI  21
MADISON        FAIR      26  21  81 W3        30.07R
MIDDLETON      FAIR      27  23  85 W8        30.07R WCI  19
WATERTOWN      CLOUDY    27  24  87 W6        30.07R WCI  21
MONROE         FAIR      28  23  80 W10G17    30.07F WCI  19
JANESVILLE     CLOUDY    30  25  80 W10       30.09R WCI  21
$$

WIZ051-052-058>065-066-070>072-180500-
SOUTHEAST WISCONSIN

CITY           SKY/WX    TMP DP  RH WIND       PRES   REMARKS
MILWAUKEE      MOCLDY    29  23  78 W9        30.06R WCI  20
WAUKESHA       CLOUDY    27  21  80 W15       30.07R WCI  15
MILWAUKEE/TIMM CLOUDY    28  21  74 W16       30.07R WCI  17
RACINE         MOCLDY    29  23  78 W10       30.09R WCI  20
BURLINGTON     FAIR      27  21  79 W6        30.08R WCI  20
KENOSHA        FAIR      29  22  75 W16G24    30.07R WCI  17
FOND DU LAC    FAIR      24  18  77 SW6       30.04R WCI  17
SHEBOYGAN      FAIR      26  21  81 W12       30.02R WCI  16
WEST BEND      FAIR      28  23  80 W14G20    30.03R WCI  17
JUNEAU         FAIR      22  19  88 SW8       30.06R WCI  13
$$

LSZ147-162-180500-
LAKE SUPERIOR

STATION/POSITION TIME  TEMP    WIND        PRES    WAVE
                       AIR SEA DIR/SP/G            HT/PER
                 (UTC) (F)     (DEG/KT/KT) (MB)    (FT/S)
DEVILS ISLAND    0400   22     290/ 27/ 33 1015.5R
SAXON HARBOR     0340   25     280/  6/ 11 1014.6R
$$

LMZ867-665-643>646-180500-
LAKE MICHIGAN

STATION/POSITION TIME  TEMP    WIND        PRES    WAVE
                       AIR SEA DIR/SP/G            HT/PER
                 (UTC) (F)     (DEG/KT/KT) (MB)    (FT/S)
NORTHPORT PIER   0340   25                 1013.5R
KEWAUNEE LAKESHO 0342   27     270/  6/ 10 1014.6R
SHEBOYGAN LAKESH 0400   28     260/ 10/ 13 1017.6R
PORT WASHINGTON  0340   29     280/ 10/ 15 1017.9R
MILWAUKEE LAKESH 0350   29     270/ 14/ 17   N/A
KENOSHA   LAKESH 0400   29     280/ 15/ 22 1018.6
$$

TC  - TEMPERATURE IN CELSIUS
VSB - VISIBILITY IN STATUTE MILES
WCI - WIND CHILL INDEX
HX  - HEAT INDEX





USA.gov is the U.S. government's official web portal to all federal, state and local government web resources and services.